WetterOnline ( https://www.wetteronline.de )

Wetter aktuell Místo

Aktuelles Wetter: Tusimice (326m)

6-stündlich | Neueste Meldungen
Ortszeit Temperatur Wetter
Fr, 21.06. 20:00 21.6° C bewölkt
Fr, 21.06. 14:00 24.7° C leicht bewölkt
Fr, 21.06. 8:00 18.4° C -
Fr, 21.06. 2:00 14.5° C -
Do, 20.06. 20:00 20.3° C bedeckt
Do, 20.06. 14:00 20.4° C fast wolkenlos
Do, 20.06. 8:00 13.1° C -
Do, 20.06. 2:00 11.4° C -
Ortszeit Temperatur Wetter
Sa, 22.06. 1:00 17.4° C leichte Schauer
Sa, 22.06. 0:00 17.9° C leichter Regen
Fr, 21.06. 23:00 19.2° C bedeckt
Fr, 21.06. 22:00 19.5° C bewölkt
Fr, 21.06. 21:00 20.2° C leichte Schauer
Fr, 21.06. 20:00 21.6° C bewölkt
Ortszeit Relative Feuchte Sichtweite
Fr, 21.06. 20:00 66% 30 km
Fr, 21.06. 14:00 62% 35 km
Fr, 21.06. 8:00 73% 26 km
Fr, 21.06. 2:00 90% 26 km
Do, 20.06. 20:00 61% 35 km
Do, 20.06. 14:00 62% 35 km
Do, 20.06. 8:00 88% 35 km
Do, 20.06. 2:00 91% 35 km
Ortszeit Relative Feuchte Sichtweite
Sa, 22.06. 1:00 93% 23 km
Sa, 22.06. 0:00 88% 30 km
Fr, 21.06. 23:00 77% 35 km
Fr, 21.06. 22:00 75% 35 km
Fr, 21.06. 21:00 74% 30 km
Fr, 21.06. 20:00 66% 30 km
Ortszeit Niederschlagsmenge Niederschlagsart
Fr, 21.06. 20:00 0.4 l/m2 in 12 Std. Schauer
Fr, 21.06. 14:00 0.0 l/m2 in 6 Std. -
Fr, 21.06. 8:00 0.0 l/m2 in 12 Std. -
Fr, 21.06. 2:00 0.0 l/m2 in 6 Std. Schauer
Do, 20.06. 20:00 0.1 l/m2 in 12 Std. -
Do, 20.06. 14:00 0.1 l/m2 in 6 Std. -
Do, 20.06. 8:00 0.1 l/m2 in 12 Std. -
Do, 20.06. 2:00 0.0 l/m2 in 6 Std. Schauer
Ortszeit Niederschlagsmenge Niederschlagsart
Sa, 22.06. 1:00 1.0 l/m2 in 1 Std. Regen
Sa, 22.06. 0:00 0.0 l/m2 in 1 Std. -
Fr, 21.06. 23:00 0.0 l/m2 in 1 Std. Schauer
Fr, 21.06. 22:00 0.0 l/m2 in 1 Std. Schauer
Fr, 21.06. 21:00 0.0 l/m2 in 1 Std. -
Fr, 21.06. 20:00 0.0 l/m2 in 1 Std. Schauer
Ortszeit Stärke Spitze Richtung
km/h Bft. km/h Grad Sektor
Fr, 21.06. 20:00 7 2 58 uml. uml.
Fr, 21.06. 14:00 11 2 - 250° W
Fr, 21.06. 8:00 4 1 - uml. uml.
Fr, 21.06. 2:00 7 2 - 280° W
Do, 20.06. 20:00 7 2 - 70° O
Do, 20.06. 14:00 7 2 - uml. uml.
Do, 20.06. 8:00 0 0 - - -
Do, 20.06. 2:00 4 1 - 360° N
Ortszeit Stärke Spitze Richtung
km/h Bft. km/h Grad Sektor
Sa, 22.06. 1:00 11 2 - 260° W
Sa, 22.06. 0:00 4 1 - uml. uml.
Fr, 21.06. 23:00 11 2 - 200° S
Fr, 21.06. 22:00 11 2 - 200° S
Fr, 21.06. 21:00 4 1 - uml. uml.
Fr, 21.06. 20:00 7 2 58 uml. uml.
Ortszeit Untergrenze Bedeckung Gattung
total tief tief mittel hoch
Fr, 21.06. 20:00 3300 m - 7/8 - - -
Fr, 21.06. 14:00 5400 m - 4/8 - - -
Fr, 21.06. 8:00 - - - - - -
Fr, 21.06. 2:00 - - - - - -
Do, 20.06. 20:00 3300 m - 8/8 - - -
Do, 20.06. 14:00 3300 m - 1/8 - - -
Do, 20.06. 8:00 - - - - - -
Do, 20.06. 2:00 - - - - - -
Ortszeit Bedeckungsgrad in Achtel und Wolkenuntergrenze
Sa, 22.06. 1:00 8(2100m)
Sa, 22.06. 0:00 7(2700m)
Fr, 21.06. 23:00 8(2700m)
Fr, 21.06. 22:00 7(3600m)
Fr, 21.06. 21:00 2(1500m) 6(3300m) 7(4500m)
Fr, 21.06. 20:00 7(3300m)
Ortszeit Luftdruck NN (hPa) Tendenz (hPa in 3 Std.)
Fr, 21.06. 20:00 1011 - 0,9
Fr, 21.06. 14:00 1014 - 0,9
Fr, 21.06. 8:00 1017 - 0,3
Fr, 21.06. 2:00 1018 - 1,0
Do, 20.06. 20:00 1019 - 0,9
Do, 20.06. 14:00 1022 - 0,7
Do, 20.06. 8:00 1024 + 0,4
Do, 20.06. 2:00 1023 + 0,8
Ortszeit Luftdruck NN (hPa) Tendenz (hPa in 3 Std.)
Sa, 22.06. 1:00 1013 + 1,5
Sa, 22.06. 0:00 1012 + 1,7
Fr, 21.06. 23:00 1012 + 0,5
Fr, 21.06. 22:00 1011 - 0,5
Fr, 21.06. 21:00 1010 - 0,6
Fr, 21.06. 20:00 1011 - 0,9
Ortszeit Schneehöhe (cm)
Fr, 21.06. 20:00 -
Fr, 21.06. 14:00 -
Fr, 21.06. 8:00 -
Fr, 21.06. 2:00 -
Do, 20.06. 20:00 -
Do, 20.06. 14:00 -
Do, 20.06. 8:00 -
Do, 20.06. 2:00 -
Ortszeit Schneehöhe (cm)
Sa, 22.06. 1:00 -
Sa, 22.06. 0:00 -
Fr, 21.06. 23:00 -
Fr, 21.06. 22:00 -
Fr, 21.06. 21:00 -
Fr, 21.06. 20:00 -
Link zu dieser Seite / Seite empfehlen

Das Wetter in ...